Location: Long Geng
(2.6167°N, 114.1333°E)
Time: 22:37:04
(UTC+00:00)

SL-24 R/B - Pass Details

Date: 14 May 2021
Orbit: 506 x 1001 km, 97.4° (Epoch: 12 June)

Event Time Altitude Azimuth Distance (km) Brightness Sun altitude
Rises 21:14:52 0° 181° (S) 2,650 7.1 -14.5°
Reaches altitude 10° 21:17:04 10° 189° (S) 1,733 6.1 -13.9°
Maximum altitude 21:20:30 39° 259° (W) 774 4.1 -13.1°
Drops below altitude 10° 21:23:56 10° 329° (NNW) 1,722 6.2 -12.3°
Sets 21:26:07 0° 337° (NNW) 2,630 7.3 -11.8°
